Stuart, FL

4:22 AM EDT on July 23, 2017 (GMT -0400)
Witham

Weather History for KSUA - September, 2013

Change the Weather History Date:

Sunday, September 8, 2013

  Actual Average Record
Temperature  
Mean Temperature 80 °F -  
Max Temperature 86 °F 90 °F 93 °F (1967)
Min Temperature 73 °F 73 °F 32 °F (2004)
Cooling Degree Days 14    
Growing Degree Days 30 (Base 50)    
Moisture  
Dew Point 70 °F    
Average Humidity 75    
Maximum Humidity 89    
Minimum Humidity 55    
Precipitation  
Precipitation 0.00 in - - ()
Sea Level Pressure  
Sea Level Pressure 29.94 in    
Wind  
Wind Speed 4 mph (NNE)    
Max Wind Speed 10 mph    
Max Gust Speed -    
Visibility 9 miles    
Events Thunderstorm    
Averages and records for this station are not official NWS values.
T = Trace of Precipitation, MM = Missing Value Source: NWS Daily Summary

Daily Weather History Graph

Daily Weather History Graph

Search for Another Location

Airport or City:

Trip Planner

Search our weather history database for the weather conditions in past years. The results will help you decide how hot, cold, wet, or windy it might be!

Date:

Astronomy

Sep. 08, 2013 Rise Set
Actual Time 7:03 AM EDT 7:33 PM EDT
Civil Twilight 6:39 AM EDT 7:56 PM EDT
Nautical Twilight 6:12 AM EDT 8:23 PM EDT
Astronomical Twilight 5:44 AM EDT 8:51 PM EDT
Moon 9:56 AM EDT (9/8) 9:32 PM EDT (9/8)
Length of Visible Light 13h 16m
Length of Day
12h 29m
Waxing Crescent, 11% of the Moon is Illuminated
Sep 8
Waxing Crescent
Sep 12
First Quarter
Sep 19
Full
Sep 26
Last Quarter
Oct 4
New

Hourly Weather History & Observations

Time (EDT) Temp. Heat Index Dew Point Humidity Pressure Visibility Wind Dir Wind Speed Gust Speed Precip Events Conditions
12:15 AM 75.2 °F - 69.8 °F 83% 29.96 in 10.0 mi NW 3.5 mph - N/A Thunderstorm Scattered Clouds
12:35 AM 75.2 °F - 69.8 °F 83% 29.96 in 10.0 mi Calm Calm - N/A Thunderstorm Clear
12:55 AM 75.2 °F - 69.8 °F 83% 29.96 in 10.0 mi NNW 5.8 mph - N/A   Clear
1:15 AM 75.2 °F - 69.8 °F 83% 29.95 in 10.0 mi NNW 4.6 mph - N/A Thunderstorm Clear
1:35 AM 75.2 °F - 68.0 °F 78% 29.95 in 10.0 mi Calm Calm - N/A   Clear
1:55 AM 75.2 °F - 68.0 °F 78% 29.95 in 10.0 mi Calm Calm - N/A   Clear
2:15 AM 75.2 °F - 68.0 °F 78% 29.94 in 10.0 mi NNW 3.5 mph - N/A   Clear
2:35 AM 75.2 °F - 69.8 °F 83% 29.94 in 10.0 mi Calm Calm - N/A   Clear
2:55 AM 75.2 °F - 69.8 °F 83% 29.93 in 10.0 mi NW 3.5 mph - N/A   Clear
3:15 AM 75.2 °F - 69.8 °F 83% 29.93 in 10.0 mi NNW 3.5 mph - N/A   Clear
3:35 AM 75.2 °F - 69.8 °F 83% 29.92 in 10.0 mi WNW 3.5 mph - N/A   Clear
3:55 AM 75.2 °F - 69.8 °F 83% 29.92 in 10.0 mi NW 3.5 mph - N/A   Clear
4:15 AM 75.2 °F - 69.8 °F 83% 29.92 in 10.0 mi NW 5.8 mph - N/A   Clear
4:35 AM 75.2 °F - 69.8 °F 83% 29.92 in 10.0 mi NW 3.5 mph - N/A   Clear
4:55 AM 73.4 °F - 69.8 °F 88% 29.92 in 10.0 mi NW 3.5 mph - N/A   Clear
5:15 AM 73.4 °F - 69.8 °F 88% 29.92 in 10.0 mi NW 3.5 mph - N/A   Clear
5:35 AM 73.4 °F - 69.8 °F 88% 29.92 in 10.0 mi NNW 3.5 mph - N/A   Clear
5:55 AM 73.4 °F - 69.8 °F 88% 29.92 in 10.0 mi NNW 3.5 mph - N/A   Clear
6:15 AM 73.4 °F - 69.8 °F 88% 29.92 in 10.0 mi NNW 4.6 mph - N/A   Clear
6:47 AM 75.2 °F - 71.6 °F 89% 29.92 in 7.0 mi Calm Calm - N/A   Mostly Cloudy
7:47 AM 75.2 °F - 71.6 °F 89% 29.93 in 7.0 mi Calm Calm - N/A   Scattered Clouds
8:47 AM 80.6 °F 84.6 °F 71.6 °F 74% 29.96 in 7.0 mi Calm Calm - N/A   Partly Cloudy
9:47 AM 82.4 °F 87.2 °F 71.6 °F 70% 29.96 in 7.0 mi Calm Calm - N/A   Scattered Clouds
10:47 AM 84.2 °F 88.4 °F 69.8 °F 62% 29.96 in 7.0 mi Variable 5.8 mph - N/A   Mostly Cloudy
11:47 AM 84.2 °F 89.6 °F 71.6 °F 66% 29.95 in 7.0 mi NNE 10.4 mph - N/A   Mostly Cloudy
12:47 PM 86.0 °F 91.8 °F 71.6 °F 62% 29.94 in 7.0 mi NE 9.2 mph - N/A Thunderstorm Thunderstorm
1:47 PM 84.2 °F 89.6 °F 71.6 °F 66% 29.94 in 7.0 mi ENE 9.2 mph - N/A Thunderstorm Thunderstorm
2:47 PM 86.0 °F 89.4 °F 68.0 °F 55% 29.92 in 7.0 mi NNE 8.1 mph - N/A   Mostly Cloudy
3:47 PM 84.2 °F 88.4 °F 69.8 °F 62% 29.91 in 7.0 mi NE 9.2 mph - N/A   Mostly Cloudy
4:47 PM 84.2 °F 89.6 °F 71.6 °F 66% 29.89 in 7.0 mi ENE 6.9 mph - N/A   Mostly Cloudy
5:47 PM 84.2 °F 88.4 °F 69.8 °F 62% 29.90 in 7.0 mi NE 6.9 mph - N/A   Scattered Clouds
6:47 PM 84.2 °F 88.4 °F 69.8 °F 62% 29.90 in 7.0 mi NE 6.9 mph - N/A   Scattered Clouds
8:15 PM 82.4 °F 86.3 °F 69.8 °F 66% 29.92 in 10.0 mi NE 6.9 mph - N/A   Clear
8:35 PM 82.4 °F 86.3 °F 69.8 °F 66% 29.93 in 10.0 mi ENE 6.9 mph - N/A   Clear
8:55 PM 80.6 °F 83.9 °F 69.8 °F 70% 29.94 in 10.0 mi NE 4.6 mph - N/A   Clear
9:15 PM 80.6 °F 83.9 °F 69.8 °F 70% 29.95 in 10.0 mi ENE 5.8 mph - N/A   Scattered Clouds
9:35 PM 82.4 °F 87.2 °F 71.6 °F 70% 29.96 in 10.0 mi NE 4.6 mph - N/A   Scattered Clouds
9:55 PM 80.6 °F 83.9 °F 69.8 °F 70% 29.96 in 10.0 mi NE 4.6 mph - N/A   Scattered Clouds
10:15 PM 80.6 °F 83.9 °F 69.8 °F 70% 29.97 in 10.0 mi NE 5.8 mph - N/A   Clear
10:35 PM 80.6 °F 83.9 °F 69.8 °F 70% 29.97 in 10.0 mi ENE 5.8 mph - N/A   Clear
10:55 PM 80.6 °F 83.9 °F 69.8 °F 70% 29.97 in 10.0 mi Calm Calm - N/A   Clear
11:15 PM 80.6 °F 83.9 °F 69.8 °F 70% 29.98 in 10.0 mi ENE 4.6 mph - N/A   Clear
11:35 PM 80.6 °F 83.9 °F 69.8 °F 70% 29.97 in 10.0 mi ENE 3.5 mph - N/A   Clear
11:55 PM 80.6 °F 84.6 °F 71.6 °F 74% 29.97 in 10.0 mi ESE 4.6 mph - N/A   Clear